BAW704 EGLL-LCLK

Flight info

Callsign BAW704
Flight time N/A
Altitude 39000
Route DET2F DET L6 DVR UL9 KONAN DCT KOK DCT REMBA DCT SPI DCT ULNOK DCT VIBOM DCT NOMBO DCT RIDAR DCT GOMIG DCT GOTAR DCT BABIT DCT KOTUS DCT NISVA N131 USALI DCT RODIP DCT BELGI UN131 KULAR UT39 TOMBI M855 DASNI M601 BONEK BONEK1R
Aircraft A20N/M-SDGIJ1LRWXY/SB1

Departure

Time 2026-05-04 16:59
Airport London Heathrow Airport (EGLL)

Arrival

Time N/A
Airport Larnaca International Airport (LCLK)
Time Latitude Longitude Altitude Speed Heading
2026-05-04 16:58 51.43179 -0.20471 7513 ft 279 kts 105°
2026-05-04 16:59 51.42235 -0.14362 9304 ft 284 kts 105°
2026-05-04 17:00 51.40124 -0.00924 11387 ft 343 kts 105°
2026-05-04 17:00 51.38342 0.10371 13790 ft 354 kts 104°
2026-05-04 17:01 51.37118 0.18076 15176 ft 360 kts 105°
2026-05-04 17:01 51.35875 0.25868 16509 ft 367 kts 105°
2026-05-04 17:02 51.34594 0.33854 17835 ft 374 kts 105°
2026-05-04 17:02 51.33284 0.41981 19038 ft 380 kts 105°
2026-05-04 17:03 51.32621 0.46079 19645 ft 381 kts 105°
2026-05-04 17:03 51.31954 0.50201 20191 ft 385 kts 106°
2026-05-04 17:03 51.30596 0.58555 21344 ft 390 kts 106°
2026-05-04 17:04 51.29138 0.66923 22452 ft 396 kts 109°
2026-05-04 17:04 51.27556 0.75406 23540 ft 401 kts 109°
2026-05-04 17:05 51.25961 0.84018 24425 ft 407 kts 109°
2026-05-04 17:05 51.24346 0.92752 25265 ft 413 kts 109°
2026-05-04 17:06 51.22690 1.01672 25880 ft 424 kts 109°
2026-05-04 17:06 51.21862 1.06126 26337 ft 425 kts 109°
2026-05-04 17:07 51.20166 1.15207 27130 ft 430 kts 109°
2026-05-04 17:07 51.19586 1.18300 27394 ft 431 kts 109°
2026-05-04 17:07 51.18440 1.24399 27895 ft 434 kts 109°
2026-05-04 17:07 51.17568 1.29023 28252 ft 437 kts 109°
2026-05-04 17:08 51.16713 1.33690 28585 ft 440 kts 106°
2026-05-04 17:08 51.15896 1.43431 29240 ft 448 kts 96°
2026-05-04 17:08 51.15672 1.48348 29498 ft 451 kts 97°
2026-05-04 17:09 51.15436 1.53346 29845 ft 453 kts 97°
2026-05-04 17:09 51.15194 1.58361 30148 ft 455 kts 97°
2026-05-04 17:09 51.14946 1.63412 30423 ft 457 kts 97°
2026-05-04 17:10 51.14442 1.73543 30987 ft 461 kts 97°
2026-05-04 17:10 51.13667 1.88794 32056 ft 459 kts 97°
2026-05-04 17:11 51.13406 1.93852 32431 ft 458 kts 98°
2026-05-04 17:11 51.13143 1.98898 32776 ft 457 kts 98°
2026-05-04 17:11 51.12610 2.08978 33400 ft 456 kts 98°
2026-05-04 17:12 51.12344 2.13948 33719 ft 456 kts 98°
2026-05-04 17:12 51.11799 2.24002 34265 ft 455 kts 98°
2026-05-04 17:13 51.10966 2.39087 34910 ft 456 kts 98°
2026-05-04 17:14 51.10116 2.54118 35518 ft 456 kts 98°
2026-05-04 17:14 51.09827 2.59153 35719 ft 456 kts 98°
2026-05-04 17:14 51.08791 2.69063 36088 ft 452 kts 109°
2026-05-04 17:15 51.07905 2.73867 36267 ft 452 kts 109°
2026-05-04 17:15 51.06162 2.83461 36631 ft 452 kts 109°
2026-05-04 17:16 51.04428 2.93006 36935 ft 452 kts 109°
2026-05-04 17:16 51.01788 3.07416 37414 ft 452 kts 109°
2026-05-04 17:17 51.00905 3.12209 37549 ft 453 kts 109°
2026-05-04 17:17 50.98236 3.26616 37954 ft 453 kts 109°
2026-05-04 17:18 50.97646 3.29785 38043 ft 453 kts 109°
2026-05-04 17:18 50.95855 3.39375 38271 ft 453 kts 109°
2026-05-04 17:19 50.94067 3.48898 38500 ft 453 kts 109°
2026-05-04 17:19 50.92261 3.58474 38685 ft 453 kts 109°
2026-05-04 17:20 50.90445 3.68051 38845 ft 453 kts 109°
2026-05-04 17:20 50.88635 3.77554 38944 ft 441 kts 110°
2026-05-04 17:20 50.87761 3.82140 38947 ft 428 kts 110°
2026-05-04 17:21 50.84289 4.00154 38958 ft 433 kts 110°
2026-05-04 17:22 50.82520 4.09279 38957 ft 433 kts 110°
2026-05-04 17:23 50.78967 4.27487 38961 ft 433 kts 110°
2026-05-04 17:24 50.76282 4.41126 38965 ft 433 kts 110°
2026-05-04 17:25 50.72689 4.59234 38964 ft 433 kts 110°
2026-05-04 17:26 50.69065 4.77323 38963 ft 434 kts 111°
2026-05-04 17:27 50.64469 4.99995 38969 ft 434 kts 111°
2026-05-04 17:28 50.60751 5.18015 38978 ft 434 kts 111°
2026-05-04 17:29 50.55103 5.45121 38985 ft 434 kts 111°
2026-05-04 17:31 50.50339 5.67564 38978 ft 432 kts 113°
2026-05-04 17:32 50.45313 5.89798 38987 ft 432 kts 113°
2026-05-04 17:33 50.41291 6.07528 38976 ft 432 kts 113°
2026-05-04 17:34 50.37254 6.25178 38973 ft 432 kts 113°
2026-05-04 17:35 50.32145 6.47300 38959 ft 431 kts 114°
2026-05-04 17:36 50.30105 6.56074 38968 ft 432 kts 114°
2026-05-04 17:36 50.28045 6.64895 38981 ft 431 kts 114°
2026-05-04 17:37 50.25978 6.73706 38955 ft 431 kts 114°
2026-05-04 17:37 50.23911 6.82485 38967 ft 430 kts 114°
2026-05-04 17:38 50.21848 6.91210 38945 ft 431 kts 114°